パンスターズ彗星

C/2024 G4 ( PanSTARRS )

English version
Home page
Updated on July 13, 2025

---------------------------------------------------------------------

・ プロフィール

発見日 2024年4月10日
発見光度 21.1等
発見者 Pan-STARRS 2 telescope (Haleakala)

・ 写真集

・ 軌道要素

Epoch 2025 May 5.0 TT = JDT 2460800.5
T 2026 Mar. 21.63736 TT                                 Pike
q   4.9004310            (2000.0)            P               Q
z  +0.0003157      Peri.  131.42127     +0.30380504     +0.92000454
 +/-0.0000052      Node   152.98329     -0.95217520     +0.28429556
e   0.9984528      Incl.   33.02619     +0.03263270     -0.26975486
From 117 observations 2021 Jan. 12-2025 Jan. 25, mean residual 0".4.

・ 光度変化

        m1 = 7.0 + 5 logΔ + 10.0 log r

---------------------------------------------------------------------

軌道要素はM.P.E.C. 2025-C143に掲載されたものです。
光度グラフはComet for Windowsで作成したものです。

---------------------------------------------------------------------

Copyright(C) Seiichi Yoshida (comet@aerith.net). All rights reserved.